Weather reports worldwide

Advertisment
Northolt, United Kingdom (3672): temperature & dewpoint: 09.12.2018 22:00:00 - 15.12.2018 22:00:00 (GMT)Northolt, United Kingdom (3672): temperature -20cm & temperature -100cm: 09.12.2018 22:00:00 - 15.12.2018 22:00:00 (GMT)Northolt, United Kingdom (3672): wind speed & gusts: 09.12.2018 22:00:00 - 15.12.2018 22:00:00 (GMT)Northolt, United Kingdom (3672): wind direction: 09.12.2018 22:00:00 - 15.12.2018 22:00:00 (GMT)Northolt, United Kingdom (3672): reduced air pressure: 09.12.2018 22:00:00 - 15.12.2018 22:00:00 (GMT)Northolt, United Kingdom (3672): visibility: 09.12.2018 22:00:00 - 15.12.2018 22:00:00 (GMT)Northolt, United Kingdom (3672): precipitation: 09.12.2018 22:00:00 - 15.12.2018 22:00:00 (GMT)
Date & Time tt [°C] td [°C] tt -20cm [°C] tt -100cm [°C] ff [km/h] ff [kn] fx [km/h] fx [kn] dd ppp [hPa] vv [km] rr [mm]
15.12.2018 22:00:00 - - - - - - - - - - - -
15.12.2018 21:00:00 6,1 5,4 - - 5 3 - - S 1001,9 15 0,0
15.12.2018 20:00:00 5,6 4,9 - - 26 14 - - SSE 1001,6 10 0,4
15.12.2018 19:00:00 4,8 3,9 - - 24 13 - - SSE 1001,9 7 0,8
15.12.2018 18:00:00 4,3 3,4 - - 24 13 46 25 SSE 1003,6 7 1,4
15.12.2018 17:00:00 3,4 2,8 - - 28 15 - - SE 1004,1 5 3,6
15.12.2018 16:00:00 2,8 2,2 - - 26 14 - - SE 1006,5 5 2,8
15.12.2018 15:00:00 2,7 1,7 - - 26 14 - - SE 1008,0 5 1,8
15.12.2018 14:00:00 2,7 1,3 - - 29 16 48 26 SE 1009,4 8 0,4
15.12.2018 13:00:00 3,1 0,3 - - 34 18 48 26 SE 1011,1 10 0,0
15.12.2018 12:00:00 3,3 -0,7 - - 29 16 48 26 SE 1012,7 10 0,0
15.12.2018 11:00:00 3,0 -1,7 - - 28 15 48 26 SSE 1014,6 10 0,0
15.12.2018 10:00:00 2,7 -2,0 - - 28 15 - - SE 1016,1 10 0,0
15.12.2018 09:00:00 2,4 -1,9 6,5 10,2 28 15 - - SSE 1016,9 10 0,0
15.12.2018 08:00:00 2,2 -2,3 - - 24 13 - - SE 1017,6 10 0,0
15.12.2018 07:00:00 1,7 -2,4 - - 18 10 - - SE 1018,2 10 0,0
15.12.2018 06:00:00 1,5 -2,7 - - 21 11 - - SE 1018,7 13 0,0
15.12.2018 05:00:00 1,5 -3,2 - - 22 12 - - SE 1019,7 13 0,0
15.12.2018 04:00:00 1,7 -3,5 - - 22 12 - - SE 1020,3 10 0,0
15.12.2018 03:00:00 1,7 -3,6 - - 29 16 - - SE 1020,9 13 0,0
15.12.2018 02:00:00 1,9 -3,6 - - 21 11 - - SE 1021,5 10 0,0
15.12.2018 01:00:00 1,9 -3,8 - - 22 12 - - SE 1022,0 15 0,0
15.12.2018 00:00:00 2,1 -3,8 - - 22 12 - - SE 1022,3 17 0,0
14.12.2018 23:00:00 2,0 -3,4 - - 13 7 - - SE 1022,7 15 0,0
14.12.2018 22:00:00 2,3 -2,6 - - 13 7 - - SE 1023,2 15 0,0
14.12.2018 21:00:00 2,6 -2,6 - - 9 5 - - SSE 1024,0 16 0,0
14.12.2018 20:00:00 2,7 -1,7 - - 11 6 - - SSE 1023,3 10 0,0
14.12.2018 19:00:00 2,9 -1,7 - - 8 4 - - SSE 1023,7 10 0,0
14.12.2018 18:00:00 2,9 -1,6 - - 11 6 - - SE 1023,6 10 0,0
14.12.2018 17:00:00 3,0 -1,9 - - 5 3 - - SSE 1024,0 10 0,0
14.12.2018 16:00:00 3,0 -2,0 - - 8 4 - - S 1023,7 10 0,0
14.12.2018 15:00:00 3,7 -1,9 - - 8 4 - - SE 1023,2 10 0,0
14.12.2018 14:00:00 4,9 -1,2 - - 9 5 - - SW 1023,2 10 0,0
14.12.2018 13:00:00 4,0 -0,6 - - 4 2 - - NNW 1023,5 9 0,0
14.12.2018 12:00:00 2,8 0,6 - - 4 2 - - W 1023,8 8 0,0
14.12.2018 11:00:00 1,4 -0,2 - - 5 3 - - NW 1023,9 8 0,0
14.12.2018 10:00:00 0,4 -0,8 - - 4 2 - - N 1023,0 10 0,0
14.12.2018 09:00:00 -1,3 -2,5 6,9 10,2 4 2 - - E 1022,1 10 0,0
14.12.2018 08:00:00 -0,2 -1,3 - - 4 2 - - E 1022,5 10 0,0
14.12.2018 07:00:00 0,3 -1,1 - - 2 1 - - E 1022,6 10 0,0
14.12.2018 06:00:00 0,6 -0,8 - - 5 3 - - NW 1022,9 10 0,0
14.12.2018 05:00:00 0,3 -1,1 - - 8 4 - - NW 1022,6 10 0,0
14.12.2018 04:00:00 0,0 -1,4 - - 5 3 - - NW 1022,1 10 0,0
14.12.2018 03:00:00 -0,5 -2,0 - - 5 3 - - NE 1021,9 10 0,0
14.12.2018 02:00:00 -0,4 -2,7 - - 5 3 - - ESE 1021,7 10 0,0
14.12.2018 01:00:00 0,6 -2,5 - - 9 5 - - ESE 1021,5 13 0,0
14.12.2018 00:00:00 2,1 -1,7 - - 5 3 - - SE 1021,6 10 0,0
13.12.2018 23:00:00 -0,4 -1,6 - - 5 3 - - ENE 1021,2 10 0,0
13.12.2018 22:00:00 -0,6 -2,3 - - 5 3 - - E 1020,8 10 0,0
13.12.2018 21:00:00 -0,4 -2,8 - - 2 1 - - ESE 1020,4 10 0,0
13.12.2018 20:00:00 1,8 -1,1 - - 11 6 - - E 1019,6 10 0,0
13.12.2018 19:00:00 2,5 -1,1 - - 13 7 - - E 1019,3 10 0,0
13.12.2018 18:00:00 2,5 -1,4 - - 13 7 - - E 1018,5 10 0,0
13.12.2018 17:00:00 3,1 -2,0 - - 15 8 - - E 1018,4 10 0,0
13.12.2018 16:00:00 3,8 -2,1 - - 24 13 - - E 1018,1 10 0,0
13.12.2018 15:00:00 4,7 -2,3 - - 24 13 - - E 1017,6 10 0,0
13.12.2018 14:00:00 5,3 -1,4 - - 28 15 - - E 1017,2 10 0,0
13.12.2018 13:00:00 5,3 -1,2 - - 24 13 - - E 1017,2 10 0,0
13.12.2018 12:00:00 5,4 -1,4 - - 26 14 - - ESE 1017,2 10 0,0
13.12.2018 11:00:00 5,4 -1,1 - - 16 9 - - ESE 1017,5 10 0,0
13.12.2018 10:00:00 4,5 -0,2 - - 18 10 - - ESE 1017,5 10 0,0
13.12.2018 09:00:00 3,2 -0,1 7,7 10,5 18 10 - - ESE 1017,5 10 0,0
13.12.2018 08:00:00 2,0 -0,2 - - 15 8 - - ESE 1017,1 10 0,0
13.12.2018 07:00:00 2,3 -0,3 - - 21 11 - - ESE 1016,7 10 0,0
13.12.2018 06:00:00 2,3 0,2 - - 21 11 - - ESE 1016,5 10 0,0
13.12.2018 05:00:00 2,6 0,4 - - 24 13 - - ESE 1016,5 9 0,0
13.12.2018 04:00:00 2,3 0,5 - - 18 10 - - ESE 1017,0 8 0,0
13.12.2018 03:00:00 2,1 0,4 - - 13 7 - - ESE 1017,9 9 0,0
13.12.2018 02:00:00 2,5 0,5 - - 22 12 - - ESE 1018,0 10 0,0
13.12.2018 01:00:00 2,8 0,7 - - 18 10 - - ESE 1018,4 10 0,0
13.12.2018 00:00:00 2,7 0,0 - - 18 10 - - ESE 1018,7 10 0,0
12.12.2018 23:00:00 2,7 -0,9 - - 15 8 - - SE 1019,1 10 0,0
12.12.2018 22:00:00 3,6 -1,2 - - 22 12 - - SE 1019,1 10 0,0
12.12.2018 21:00:00 3,8 -0,9 - - 24 13 - - ESE 1019,6 10 0,0
12.12.2018 20:00:00 3,5 -1,6 - - 15 8 - - SE 1020,4 30 0,0
12.12.2018 19:00:00 3,5 -1,6 - - 15 8 - - SE 1020,7 30 0,0
12.12.2018 18:00:00 3,8 -1,5 - - 11 6 - - ESE 1021,1 10 0,0
12.12.2018 17:00:00 4,2 -1,6 - - 13 7 - - SE 1021,3 30 0,0
12.12.2018 16:00:00 5,1 -1,6 - - 18 10 - - SSE 1021,5 10 0,0
12.12.2018 15:00:00 6,4 -1,5 - - 26 14 - - SE 1021,4 40 0,0
12.12.2018 14:00:00 7,0 1,3 - - 21 11 - - SE 1021,9 10 0,0
12.12.2018 13:00:00 7,1 2,2 - - 22 12 - - SE 1022,4 10 0,0
12.12.2018 12:00:00 7,3 3,1 - - 15 8 - - SSE 1022,7 10 0,0
12.12.2018 11:00:00 7,6 4,5 - - 18 10 - - SE 1022,8 10 0,0
12.12.2018 10:00:00 6,8 5,2 - - 16 9 - - ESE 1022,8 10 0,0
12.12.2018 09:00:00 6,7 5,2 8,0 10,7 21 11 - - SE 1023,0 5 0,0
12.12.2018 08:00:00 7,3 5,2 - - 18 10 - - SE 1022,7 9 0,0
12.12.2018 07:00:00 7,3 5,3 - - 16 9 - - ESE 1022,2 10 0,0
12.12.2018 06:00:00 7,1 5,6 - - 16 9 - - ESE 1021,9 9 0,0
12.12.2018 05:00:00 6,3 5,2 - - 13 7 - - ESE 1021,9 12 0,0
12.12.2018 04:00:00 5,6 4,7 - - 8 4 - - SE 1022,2 10 0,0
12.12.2018 03:00:00 6,6 5,2 - - 13 7 - - ESE 1022,4 12 0,0
12.12.2018 02:00:00 6,7 5,8 - - 13 7 - - ESE 1022,5 8 0,0
12.12.2018 01:00:00 6,0 5,3 - - 9 5 - - ESE 1022,5 6 0,0
12.12.2018 00:00:00 5,3 4,6 - - 9 5 - - SE 1022,7 6 0,0
11.12.2018 23:00:00 4,9 3,8 - - 11 6 - - ESE 1022,6 7 0,0
11.12.2018 22:00:00 5,2 4,2 - - 11 6 - - ESE 1022,5 8 0,0
11.12.2018 21:00:00 4,4 3,5 - - 9 5 - - ESE 1022,9 8 0,0
11.12.2018 20:00:00 4,5 3,4 - - 8 4 - - ESE 1023,3 10 0,0
11.12.2018 19:00:00 5,1 3,7 - - 9 5 - - ESE 1023,4 10 0,0
11.12.2018 18:00:00 5,7 3,7 - - 9 5 - - SE 1023,3 10 0,0
11.12.2018 17:00:00 6,3 2,9 - - 8 4 - - SE 1023,3 10 0,0
11.12.2018 16:00:00 7,5 2,9 - - 9 5 - - SE 1023,4 10 0,0
11.12.2018 15:00:00 8,7 3,0 - - 8 4 - - SSE 1023,7 10 0,0
11.12.2018 14:00:00 9,6 3,8 - - 8 4 - - S 1024,2 10 0,0
11.12.2018 13:00:00 9,3 4,4 - - 5 3 - - SSE 1024,7 10 0,0
11.12.2018 12:00:00 8,5 4,7 - - 5 3 - - SE 1024,9 15 0,0
11.12.2018 11:00:00 5,2 4,3 - - 2 1 - - S 1025,7 10 0,0
11.12.2018 10:00:00 2,1 1,9 - - 4 2 - - NW 1026,2 7 0,0
11.12.2018 09:00:00 -0,2 -0,4 8,7 10,7 2 1 - - NNW 1026,1 8 0,0
11.12.2018 08:00:00 -0,2 -0,5 - - 2 1 - - NW 1026,3 8 0,0
11.12.2018 07:00:00 -0,4 -0,7 - - 2 1 - - E 1026,3 10 0,0
11.12.2018 06:00:00 0,1 -0,2 - - 0 0 - - N 1026,3 9 0,0
11.12.2018 05:00:00 -0,2 -0,5 - - 4 2 - - NW 1026,7 0,3 0,0
11.12.2018 04:00:00 0,0 -0,5 - - 0 0 - - N 1026,7 11 0,0
11.12.2018 03:00:00 0,8 0,3 - - 2 1 - - ESE 1026,7 10 0,0
11.12.2018 02:00:00 2,1 1,4 - - 2 1 - - ESE 1027,1 10 0,0
11.12.2018 01:00:00 3,5 2,6 - - 0 0 - - N 1027,6 15 0,0
11.12.2018 00:00:00 5,2 4,1 - - 4 2 - - WNW 1027,7 10 0,0
10.12.2018 23:00:00 5,7 4,1 - - 4 2 - - W 1027,7 20 0,0
10.12.2018 22:00:00 5,9 4,2 - - 0 0 - - N 1027,9 10 0,0
10.12.2018 21:00:00 7,0 4,4 - - 5 3 - - W 1027,8 10 0,0
10.12.2018 20:00:00 7,1 4,2 - - 8 4 - - WNW 1028,0 10 0,0
10.12.2018 19:00:00 7,8 4,7 - - 9 5 - - W 1027,9 10 0,0
10.12.2018 18:00:00 8,0 4,4 - - 8 4 - - W 1028,0 10 0,0
10.12.2018 17:00:00 7,8 4,4 - - 8 4 - - WNW 1028,3 10 0,0
10.12.2018 16:00:00 8,2 4,2 - - 9 5 - - WNW 1027,9 10 0,0
10.12.2018 15:00:00 8,7 4,7 - - 11 6 - - NW 1027,5 10 0,0
10.12.2018 14:00:00 8,5 4,8 - - 15 8 - - WNW 1027,3 10 0,0
10.12.2018 13:00:00 8,5 5,1 - - 15 8 - - WNW 1027,7 10 0,0
10.12.2018 12:00:00 8,2 4,9 - - 16 9 - - WNW 1027,7 10 0,0
10.12.2018 11:00:00 8,0 5,1 - - 16 9 - - W 1027,9 10 0,0
10.12.2018 10:00:00 7,6 5,1 - - 13 7 - - W 1027,5 10 0,0
10.12.2018 09:00:00 6,2 4,3 9,0 10,7 5 3 - - SW 1026,9 10 0,0
10.12.2018 08:00:00 6,3 4,0 - - 11 6 - - WNW 1026,2 10 0,0
10.12.2018 07:00:00 6,9 4,4 - - 13 7 - - WNW 1025,8 10 0,0
10.12.2018 06:00:00 7,1 4,7 - - 15 8 - - W 1025,4 10 0,0
10.12.2018 05:00:00 6,9 4,9 - - 11 6 - - W 1025,2 10 0,0
10.12.2018 04:00:00 5,8 3,8 - - 11 6 - - WNW 1024,4 40 0,0
10.12.2018 03:00:00 6,9 4,6 - - 16 9 - - W 1024,2 10 0,0
10.12.2018 02:00:00 6,1 4,1 - - 15 8 - - W 1023,8 10 0,0
10.12.2018 01:00:00 5,6 4,1 - - 13 7 - - W 1023,4 10 0,0
10.12.2018 00:00:00 6,1 4,2 - - 15 8 - - W 1022,7 10 0,0
09.12.2018 23:00:00 5,8 4,0 - - 13 7 - - W 1022,2 55 0,0
09.12.2018 22:00:00 5,6 3,5 - - 13 7 - - WNW 1021,5 45 0,0

tt = temperature
td = dewpoint
tt -20cm = temperature -20cm
tt -100cm = temperature -100cm
ff = wind speed
fx = gusts
dd = wind direction
ppp = reduced air pressure
vv = visibility
rr = precipitation

Next stations